FW8170 Weather Reports


time (UTC)temp
C
wind
direction
speed
KPH
gust
KPH
rain 1hr
cm
rain 24hr
cm
rain mn
cm
humidity
%
barometer
mb
20260906052317 30 294 0.0 0.0 0.00 0.00 0.00 76 1016.9
20260906051814 30 347 0.0 1.6 0.00 0.00 0.00 76 1016.8
20260906051313 30 330 0.0 1.6 0.00 0.00 0.00 75 1016.9
20260906050808 30 330 0.0 0.0 0.00 0.00 0.00 75 1016.9
20260906050303 30 271 0.0 0.0 0.00 0.00 0.00 75 1016.8
20260906045802 30 278 0.0 0.0 0.00 0.00 0.00 74 1016.6
20260906045257 30 284 0.0 3.2 0.00 0.00 0.00 74 1016.6
20260906044753 30 303 0.0 0.0 0.00 0.00 0.00 74 1016.5
20260906044247 30 290 0.0 0.0 0.00 0.00 0.00 73 1016.6
20260906043744 30 275 0.0 0.0 0.00 0.00 0.00 73 1016.5
20260906043240 30 297 0.0 0.0 0.00 0.00 0.00 73 1016.6
20260906042739 30 286 0.0 0.0 0.00 0.00 0.00 72 1016.4
20260906042238 30 294 0.0 0.0 0.00 0.00 0.00 72 1016.4
20260906041734 30 292 0.0 1.6 0.00 0.00 0.00 71 1016.4
20260906041229 31 301 0.0 1.6 0.00 0.00 0.00 71 1016.4
20260906040724 31 300 1.6 3.2 0.00 0.00 0.00 71 1016.3
20260906040219 31 344 0.0 1.6 0.00 0.00 0.00 70 1016.3
20260906035714 31 341 0.0 0.0 0.00 0.00 0.00 70 1016.5
20260906035205 31 275 0.0 1.6 0.00 0.00 0.00 69 1016.4
20260906034704 31 268 0.0 1.6 0.00 0.00 0.00 69 1016.3
20260906034159 31 276 0.0 1.6 0.00 0.00 0.00 68 1016.2
20260906033655 31 305 0.0 1.6 0.00 0.00 0.00 68 1016.3
20260906033156 31 283 0.0 0.0 0.00 0.00 0.00 67 1016.3
20260906032652 31 276 0.0 1.6 0.00 0.00 0.00 66 1016.1
20260906032146 31 294 0.0 3.2 0.00 0.00 0.00 66 1016.0
20260906031641 31 300 0.0 1.6 0.00 0.00 0.00 65 1016.0
20260906031137 31 276 0.0 0.0 0.00 0.00 0.00 65 1015.9
20260906030636 31 284 0.0 3.2 0.00 0.00 0.00 64 1016.0
20260906030132 31 155 0.0 1.6 0.00 0.00 0.00 64 1016.2
20260906025631 31 282 0.0 1.6 0.00 0.00 0.00 64 1015.9
20260906025130 31 6 0.0 1.6 0.00 0.00 0.00 64 1015.8
20260906024625 31 283 0.0 1.6 0.00 0.00 0.00 64 1015.8
20260906024125 31 309 0.0 1.6 0.00 0.00 0.00 65 1015.8
20260906023621 31 296 0.0 0.0 0.00 0.00 0.00 64 1015.9
20260906023115 31 315 0.0 0.0 0.00 0.00 0.00 65 1015.5
20260906022610 31 297 0.0 0.0 0.00 0.00 0.00 64 1015.5
20260906022106 31 292 0.0 0.0 0.00 0.00 0.00 64 1015.4
20260906021602 31 306 0.0 0.0 0.00 0.00 0.00 64 1015.5
20260906021100 31 322 0.0 0.0 0.00 0.00 0.00 64 1015.4
20260906020600 31 295 0.0 0.0 0.00 0.00 0.00 63 1015.5
20260906020100 31 296 0.0 0.0 0.00 0.00 0.00 63 1015.2
20260906015554 31 304 0.0 0.0 0.00 0.00 0.00 63 1015.1
20260906015053 31 331 0.0 0.0 0.00 0.00 0.00 63 1015.1
20260906014548 31 279 0.0 0.0 0.00 0.00 0.00 63 1015.1
20260906014044 31 292 0.0 1.6 0.00 0.00 0.00 63 1014.9
20260906013539 32 304 0.0 0.0 0.00 0.00 0.00 62 1014.9
20260906013035 32 302 0.0 0.0 0.00 0.00 0.00 61 1014.8
20260906012530 32 296 0.0 0.0 0.00 0.00 0.00 61 1014.6
20260906012029 32 309 0.0 0.0 0.00 0.00 0.00 61 1014.7
20260906011526 32 292 0.0 0.0 0.00 0.00 0.00 61 1014.6
20260906011025 32 292 0.0 0.0 0.00 0.00 0.00 61 1014.5
20260906010520 32 311 0.0 0.0 0.00 0.00 0.00 60 1014.7
20260906010017 32 328 0.0 0.0 0.00 0.00 0.00 59 1014.7
20260906005516 32 314 0.0 1.6 0.00 0.00 0.00 59 1014.5
20260906005015 33 299 0.0 1.6 0.00 0.00 0.00 58 1014.4
20260906004515 33 280 0.0 0.0 0.00 0.00 0.00 57 1014.2
20260906004010 33 282 0.0 0.0 0.00 0.00 0.00 57 1014.3
20260906003505 33 269 0.0 1.6 0.00 0.00 0.00 56 1014.4
20260906003000 33 278 0.0 0.0 0.00 0.00 0.00 56 1014.5
20260906002455 34 288 0.0 0.0 0.00 0.00 0.00 55 1014.5
20260906001950 34 288 0.0 0.0 0.00 0.00 0.00 54 1014.4
20260906001446 34 264 0.0 0.0 0.00 0.00 0.00 53 1014.6
20260906000940 35 278 0.0 3.2 0.00 0.00 0.00 53 1014.4
20260906000435 35 292 0.0 0.0 0.00 0.00 0.00 52 1014.3
20260905235925 35 285 0.0 3.2 0.00 0.00 0.00 52 1014.3
20260905235424 35 313 0.0 1.6 0.00 0.00 0.00 51 1014.3
20260905234919 35 288 0.0 1.6 0.00 0.00 0.00 51 1014.3
20260905234414 35 300 0.0 1.6 0.00 0.00 0.00 51 1014.6
20260905233910 35 292 0.0 0.0 0.00 0.00 0.00 51 1014.5
20260905233405 35 10 1.6 1.6 0.00 0.00 0.00 50 1014.5
20260905232903 35 339 0.0 0.0 0.00 0.00 0.00 51 1014.5
20260905232400 35 325 1.6 1.6 0.00 0.00 0.00 50 1014.6
20260905231855 35 277 0.0 1.6 0.00 0.00 0.00 50 1014.6
20260905231350 35 292 0.0 0.0 0.00 0.00 0.00 50 1014.8
20260905230847 36 278 0.0 1.6 0.00 0.00 0.00 49 1014.5
20260905230344 36 290 0.0 1.6 0.00 0.00 0.00 49 1014.5
20260905225843 36 278 0.0 4.8 0.00 0.00 0.00 48 1014.7
20260905225339 37 37 0.0 0.0 0.00 0.00 0.00 47 1014.5
20260905224834 37 345 0.0 1.6 0.00 0.00 0.00 46 1014.5
20260905224329 36 348 0.0 1.6 0.00 0.00 0.00 48 1014.5
20260905223824 36 306 0.0 1.6 0.00 0.00 0.00 48 1014.2
20260905223322 36 291 0.0 1.6 0.00 0.00 0.00 48 1014.3
20260905222817 36 303 0.0 3.2 0.00 0.00 0.00 50 1014.5
20260905222315 36 40 0.0 0.0 0.00 0.00 0.00 50 1014.5
20260905221812 36 40 0.0 3.2 0.00 0.00 0.00 50 1014.4
20260905221309 36 285 0.0 1.6 0.00 0.00 0.00 49 1014.3
20260905220804 36 7 0.0 1.6 0.00 0.00 0.00 49 1014.6
20260905220300 36 47 1.6 3.2 0.00 0.00 0.00 48 1014.6
20260905215759 36 46 1.6 3.2 0.00 0.00 0.00 48 1014.6
20260905215255 37 298 0.0 0.0 0.00 0.00 0.00 48 1014.8
20260905214750 37 291 1.6 1.6 0.00 0.00 0.00 47 1014.5
20260905214246 37 264 0.0 0.0 0.00 0.00 0.00 48 1014.4
20260905213741 36 271 0.0 0.0 0.00 0.00 0.00 47 1014.5
20260905213237 36 29 1.6 3.2 0.00 0.00 0.00 47 1014.5
20260905212732 37 273 0.0 4.8 0.00 0.00 0.00 45 1014.6
20260905212232 37 43 0.0 3.2 0.00 0.00 0.00 45 1014.6
20260905211731 36 289 0.0 0.0 0.00 0.00 0.00 45 1014.6
20260905211226 36 9 0.0 1.6 0.00 0.00 0.00 46 1014.8
20260905210723 36 288 0.0 1.6 0.00 0.00 0.00 46 1014.6
20260905210223 36 292 0.0 0.0 0.00 0.00 0.00 46 1014.8
20260905205721 36 290 0.0 0.0 0.00 0.00 0.00 45 1014.7
20260905205217 36 290 0.0 1.6 0.00 0.00 0.00 45 1014.8
20260905204716 36 275 0.0 0.0 0.00 0.00 0.00 46 1014.7
20260905204212 36 236 1.6 1.6 0.00 0.00 0.00 47 1014.9
20260905203706 36 268 1.6 1.6 0.00 0.00 0.00 48 1015.0
20260905203202 36 299 0.0 0.0 0.00 0.00 0.00 47 1014.7
20260905202657 37 285 0.0 1.6 0.00 0.00 0.00 46 1014.9
20260905202152 37 293 0.0 3.2 0.00 0.00 0.00 46 1014.8
20260905201648 37 275 0.0 1.6 0.00 0.00 0.00 46 1014.8
20260905201147 37 303 0.0 3.2 0.00 0.00 0.00 44 1015.0
20260905200643 38 198 0.0 1.6 0.00 0.00 0.00 43 1015.0
20260905200138 37 356 1.6 3.2 0.00 0.00 0.00 43 1015.1
20260905195636 38 278 0.0 1.6 0.00 0.00 0.00 42 1015.0
20260905195131 38 306 0.0 1.6 0.00 0.00 0.00 43 1014.9
20260905194626 38 295 0.0 4.8 0.00 0.00 0.00 41 1015.4
20260905194125 38 335 1.6 3.2 0.00 0.00 0.00 42 1015.4
20260905193621 38 261 0.0 3.2 0.00 0.00 0.00 42 1015.6
20260905193115 38 261 0.0 1.6 0.00 0.00 0.00 42 1015.4
20260905192611 38 286 1.6 3.2 0.00 0.00 0.00 42 1015.6
20260905192108 38 266 0.0 4.8 0.00 0.00 0.00 42 1015.6
20260905191606 39 40 3.2 4.8 0.00 0.00 0.00 41 1015.7
20260905191105 39 14 1.6 3.2 0.00 0.00 0.00 42 1015.9
20260905190603 39 291 0.0 1.6 0.00 0.00 0.00 41 1015.6
20260905185601 39 276 0.0 1.6 0.00 0.00 0.00 41 1015.8
20260905185056 39 325 0.0 4.8 0.00 0.00 0.00 40 1015.7
20260905184551 40 271 1.6 8.0 0.00 0.00 0.00 41 1015.8
20260905184050 40 216 0.0 3.2 0.00 0.00 0.00 41 1016.0
20260905183549 40 296 0.0 3.2 0.00 0.00 0.00 41 1015.9
20260905183045 39 346 3.2 4.8 0.00 0.00 0.00 41 1016.0
20260905182544 40 337 1.6 1.6 0.00 0.00 0.00 42 1016.1
20260905182045 39 20 3.2 4.8 0.00 0.00 0.00 43 1016.1
20260905181545 38 315 0.0 1.6 0.00 0.00 0.00 46 1016.1
20260905181045 38 302 0.0 3.2 0.00 0.00 0.00 44 1016.1
20260905180545 38 57 0.0 0.0 0.00 0.00 0.00 46 1016.3
20260905180040 38 57 0.0 1.6 0.00 0.00 0.00 47 1016.4
20260905175539 37 57 0.0 1.6 0.00 0.00 0.00 48 1016.4
20260905175035 37 57 0.0 1.6 0.00 0.00 0.00 49 1016.3
20260905174530 37 296 3.2 3.2 0.00 0.00 0.00 49 1016.4
20260905174026 36 45 0.0 3.2 0.00 0.00 0.00 49 1016.5
20260905173522 37 299 0.0 0.0 0.00 0.00 0.00 49 1016.5
20260905173018 37 37 0.0 3.2 0.00 0.00 0.00 49 1016.6
20260905172516 37 283 0.0 1.6 0.00 0.00 0.00 49 1016.5
20260905172012 36 294 0.0 4.8 0.00 0.00 0.00 49 1016.6
20260905171508 37 306 0.0 3.2 0.00 0.00 0.00 49 1016.6
20260905171003 36 309 0.0 1.6 0.00 0.00 0.00 49 1016.9
20260905170500 37 28 1.6 3.2 0.00 0.00 0.00 49 1016.9
20260905165954 37 298 1.6 1.6 0.00 0.00 0.00 48 1016.9
20260905165449 37 41 0.0 0.0 0.00 0.00 0.00 49 1017.0
20260905164944 36 272 0.0 3.2 0.00 0.00 0.00 49 1016.9
20260905164438 36 321 0.0 3.2 0.00 0.00 0.00 52 1017.2
20260905163933 36 324 1.6 3.2 0.00 0.00 0.00 52 1017.1
20260905163430 35 313 0.0 1.6 0.00 0.00 0.00 54 1017.3
20260905162925 35 298 0.0 3.2 0.00 0.00 0.00 55 1017.2
20260905162420 35 273 0.0 1.6 0.00 0.00 0.00 55 1017.2
20260905161915 35 341 0.0 0.0 0.00 0.00 0.00 55 1017.2
20260905161414 35 293 0.0 3.2 0.00 0.00 0.00 55 1017.3
20260905160912 35 269 0.0 3.2 0.00 0.00 0.00 56 1017.4
20260905160406 34 252 0.0 1.6 0.00 0.00 0.00 57 1017.3
20260905155901 34 287 0.0 1.6 0.00 0.00 0.00 58 1017.3
20260905155401 33 32 4.8 8.0 0.00 0.00 0.00 58 1017.1
20260905154859 33 283 0.0 1.6 0.00 0.00 0.00 59 1017.5
20260905154355 33 302 0.0 1.6 0.00 0.00 0.00 59 1017.4
20260905153850 33 320 0.0 4.8 0.00 0.00 0.00 60 1017.5
20260905153347 33 263 0.0 1.6 0.00 0.00 0.00 62 1017.4
20260905152846 33 34 0.0 1.6 0.00 0.00 0.00 63 1017.3
20260905152346 33 7 3.2 3.2 0.00 0.00 0.00 62 1017.3
20260905151841 33 268 0.0 0.0 0.00 0.00 0.00 64 1017.5
20260905151337 32 246 0.0 1.6 0.00 0.00 0.00 64 1017.4
20260905150837 32 26 1.6 3.2 0.00 0.00 0.00 65 1017.6
20260905150331 32 304 0.0 1.6 0.00 0.00 0.00 66 1017.4
20260905145829 32 359 1.6 1.6 0.00 0.00 0.00 66 1017.3
20260905145328 31 330 1.6 1.6 0.00 0.00 0.00 66 1017.3
20260905144827 32 297 0.0 1.6 0.00 0.00 0.00 66 1017.4
20260905144323 31 296 0.0 4.8 0.00 0.00 0.00 67 1017.3
20260905143822 31 297 0.0 3.2 0.00 0.00 0.00 68 1017.4
20260905143316 31 332 0.0 3.2 0.00 0.00 0.00 69 1017.2
20260905142815 30 284 0.0 0.0 0.00 0.00 0.00 69 1017.2
20260905142309 30 286 0.0 0.0 0.00 0.00 0.00 70 1017.2
20260905141806 30 327 0.0 0.0 0.00 0.00 0.00 69 1017.5
20260905141301 30 281 0.0 0.0 0.00 0.00 0.00 69 1017.4
20260905140757 30 357 1.6 1.6 0.00 0.00 0.00 70 1017.3
20260905140256 30 320 0.0 1.6 0.00 0.00 0.00 70 1017.4
20260905135755 30 295 0.0 0.0 0.00 0.00 0.00 71 1017.4
20260905135252 29 288 1.6 3.2 0.00 0.00 0.00 71 1017.4
20260905134752 29 292 0.0 1.6 0.00 0.00 0.00 73 1017.1
20260905134251 29 296 1.6 3.2 0.00 0.00 0.00 72 1017.2
20260905133745 28 291 0.0 1.6 0.00 0.00 0.00 74 1017.1
20260905133241 28 309 0.0 1.6 0.00 0.00 0.00 75 1016.9
20260905132739 28 0 0.0 1.6 0.00 0.00 0.00 75 1016.9
20260905132235 28 291 0.0 1.6 0.00 0.00 0.00 76 1017.0
20260905131730 28 308 0.0 1.6 0.00 0.00 0.00 76 1017.0
20260905131225 28 308 0.0 0.0 0.00 0.00 0.00 77 1017.1
20260905130720 27 297 0.0 0.0 0.00 0.00 0.00 77 1017.2
20260905130219 27 297 0.0 1.6 0.00 0.00 0.00 77 1016.9
20260905125714 27 307 0.0 1.6 0.00 0.00 0.00 77 1017.1
20260905125209 27 320 0.0 1.6 0.00 0.00 0.00 78 1017.1
20260905124706 27 317 0.0 3.2 0.00 0.00 0.00 78 1016.8
20260905124202 27 55 0.0 0.0 0.00 0.00 0.00 79 1016.9
20260905123656 27 294 0.0 0.0 0.00 0.00 0.00 80 1016.7
20260905123154 26 299 0.0 0.0 0.00 0.00 0.00 80 1016.7
20260905122653 26 290 0.0 0.0 0.00 0.00 0.00 81 1016.7
20260905122148 26 293 0.0 0.0 0.00 0.00 0.00 81 1016.6
20260905121642 26 293 0.0 0.0 0.00 0.00 0.00 81 1016.7
20260905121138 26 279 0.0 0.0 0.00 0.00 0.00 81 1016.8
20260905120637 26 279 0.0 0.0 0.00 0.00 0.00 81 1016.6
20260905120132 26 283 0.0 0.0 0.00 0.00 0.00 81 1016.3
20260905115631 26 272 0.0 0.0 0.00 0.00 0.00 81 1016.4
20260905115127 26 278 0.0 0.0 0.00 0.00 0.00 81 1016.3
20260905114626 26 297 0.0 0.0 0.00 0.00 0.00 81 1016.3
20260905114125 26 271 0.0 0.0 0.00 0.00 0.00 80 1016.5
20260905113620 26 273 0.0 0.0 0.00 0.00 0.00 80 1016.3
20260905113116 26 278 0.0 0.0 0.00 0.00 0.00 80 1016.3
20260905112618 26 272 0.0 0.0 0.00 0.00 0.00 81 1016.3
20260905112112 26 283 0.0 0.0 0.00 0.00 0.00 81 1016.3
20260905111606 26 283 0.0 0.0 0.00 0.00 0.00 81 1016.3
20260905111105 26 280 0.0 0.0 0.00 0.00 0.00 82 1016.3
20260905110604 26 294 0.0 0.0 0.00 0.00 0.00 82 1016.2
20260905110100 26 311 0.0 0.0 0.00 0.00 0.00 82 1016.0
20260905105554 26 297 0.0 0.0 0.00 0.00 0.00 81 1016.1
20260905105053 26 291 0.0 0.0 0.00 0.00 0.00 81 1016.1
20260905104550 26 291 0.0 0.0 0.00 0.00 0.00 81 1016.0
20260905104049 26 296 0.0 0.0 0.00 0.00 0.00 81 1016.2
20260905103544 26 286 0.0 0.0 0.00 0.00 0.00 81 1016.2
20260905103041 26 286 0.0 0.0 0.00 0.00 0.00 81 1016.2
20260905102536 26 292 0.0 0.0 0.00 0.00 0.00 81 1016.1
20260905102033 26 286 0.0 0.0 0.00 0.00 0.00 82 1016.3
20260905101531 26 288 0.0 0.0 0.00 0.00 0.00 82 1016.2
20260905101029 26 288 0.0 0.0 0.00 0.00 0.00 82 1016.4
20260905100526 26 286 0.0 0.0 0.00 0.00 0.00 82 1016.3
20260905100025 26 286 0.0 0.0 0.00 0.00 0.00 82 1016.1
20260905095520 26 286 0.0 0.0 0.00 0.00 0.00 82 1016.3
20260905095015 26 286 0.0 0.0 0.00 0.00 0.00 82 1016.1
20260905094510 26 286 0.0 0.0 0.00 0.00 0.00 81 1016.2
20260905094009 26 299 0.0 0.0 0.00 0.00 0.00 81 1016.4
20260905093504 26 299 0.0 0.0 0.00 0.00 0.00 81 1016.0
20260905093001 26 292 0.0 0.0 0.00 0.00 0.00 81 1016.2
20260905092455 26 302 0.0 0.0 0.00 0.00 0.00 80 1016.1
20260905091951 27 285 0.0 0.0 0.00 0.00 0.00 80 1016.0
20260905091451 27 285 0.0 0.0 0.00 0.00 0.00 80 1016.0
20260905090950 27 285 0.0 0.0 0.00 0.00 0.00 79 1016.1
20260905090445 27 285 0.0 0.0 0.00 0.00 0.00 79 1016.3
20260905085944 27 285 0.0 0.0 0.00 0.00 0.00 79 1016.1
20260905085438 27 285 0.0 0.0 0.00 0.00 0.00 79 1016.2
20260905084934 27 284 0.0 0.0 0.00 0.00 0.00 79 1016.1
20260905084433 27 284 0.0 0.0 0.00 0.00 0.00 80 1016.2
20260905083928 27 284 0.0 0.0 0.00 0.00 0.00 80 1016.0
20260905083424 27 294 0.0 0.0 0.00 0.00 0.00 80 1016.3
20260905082920 27 294 0.0 0.0 0.00 0.00 0.00 80 1016.4
20260905082415 27 294 0.0 0.0 0.00 0.00 0.00 79 1016.3
20260905081910 27 287 0.0 0.0 0.00 0.00 0.00 79 1016.5
20260905081405 27 290 0.0 0.0 0.00 0.00 0.00 80 1016.6
20260905080903 27 302 0.0 0.0 0.00 0.00 0.00 80 1016.6
20260905080358 27 288 0.0 0.0 0.00 0.00 0.00 79 1016.6
20260905075857 27 298 0.0 0.0 0.00 0.00 0.00 79 1016.5
20260905075357 27 289 0.0 0.0 0.00 0.00 0.00 78 1016.6
20260905074856 27 288 0.0 0.0 0.00 0.00 0.00 78 1016.6
20260905074352 27 297 0.0 0.0 0.00 0.00 0.00 78 1016.7
20260905073848 27 300 0.0 0.0 0.00 0.00 0.00 78 1016.4
20260905073343 27 298 0.0 0.0 0.00 0.00 0.00 78 1016.5
20260905072838 27 303 0.0 0.0 0.00 0.00 0.00 78 1016.4
20260905072332 27 305 0.0 0.0 0.00 0.00 0.00 77 1016.6
20260905071829 27 300 0.0 0.0 0.00 0.00 0.00 77 1016.6
20260905071325 27 300 0.0 0.0 0.00 0.00 0.00 77 1016.5
20260905070820 27 300 0.0 0.0 0.00 0.00 0.00 77 1016.7
20260905070316 27 318 0.0 0.0 0.00 0.00 0.00 77 1016.7
20260905065815 27 308 0.0 0.0 0.00 0.00 0.00 77 1016.6
20260905065313 27 298 0.0 0.0 0.00 0.00 0.00 77 1016.8
20260905064809 27 298 0.0 0.0 0.00 0.00 0.00 77 1016.7
20260905064305 27 319 0.0 0.0 0.00 0.00 0.00 76 1016.7
20260905063803 27 299 0.0 0.0 0.00 0.00 0.00 76 1016.6
20260905063259 27 305 0.0 0.0 0.00 0.00 0.00 76 1016.5
20260905062755 27 291 0.0 0.0 0.00 0.00 0.00 76 1016.8
20260905062255 27 291 0.0 0.0 0.00 0.00 0.00 75 1016.7
20260905061749 27 295 0.0 0.0 0.00 0.00 0.00 75 1016.6
20260905061244 27 291 0.0 0.0 0.00 0.00 0.00 75 1016.8
20260905060738 27 290 0.0 0.0 0.00 0.00 0.00 76 1016.7
20260905060236 27 300 0.0 0.0 0.00 0.00 0.00 76 1016.9
20260905055734 28 304 0.0 0.0 0.00 0.00 0.00 76 1016.7
20260905055229 28 316 0.0 0.0 0.00 0.00 0.00 76 1016.8
20260905054724 28 286 0.0 0.0 0.00 0.00 0.00 75 1016.7
20260905054220 28 297 0.0 0.0 0.00 0.00 0.00 76 1016.9
20260905053714 28 317 0.0 0.0 0.00 0.00 0.00 76 1016.9
20260905053209 28 331 0.0 1.6 0.00 0.00 0.00 76 1016.8